This demonstration page uses our WeatherBlox Daily Observations layout. Learn more.

Left ArrowRight Arrow

Hourly Observations for April 24, 2018

Temp ( °F °C ) Dew Point ( °F °C ) Humidity (%) Winds ( mph kmh ) Pressure ( in mb ) Visibility ( mi km ) Precip ( " mm )
12:53 am 00:53 Cloudy 53 11.7 49 9.4 86 86 E 7 11 30.05 1018 10 16 0.00 0.00
1:53 am 01:53 Cloudy 53 11.7 49 9.4 86 86 E 8 13 30.04 1017 10 16 0.00 0.00
2:53 am 02:53 Cloudy 53 11.7 49 9.4 86 86 E 7 11 30.02 1017 10 16 0.00 0.00
3:53 am 03:53 Cloudy with Light Rain 52 11.1 49 9.4 89 89 NE 5 7 30.01 1016 10 16 0.01 0.25
4:53 am 04:53 Cloudy with Light Rain 52 11.1 49 9.4 89 89 ENE 5 7 30.00 1016 10 16 0.00 0.03
5:53 am 05:53 Cloudy with Light Rain 52 11.1 49 9.4 89 89 E 7 11 29.99 1016 10 16 0.01 0.25
6:53 am 06:53 Cloudy with Light Rain 53 11.7 50 10 89 89 ENE 7 11 29.98 1015 10 16 0.00 0.03
7:53 am 07:53 Cloudy 53 11.7 50 10 89 89 E 7 11 29.99 1016 10 16 0.00 0.03
8:50 am 08:50 Cloudy with Light Rain 54 12 52 11 94 94 E 8 13 30.03 1017 10 16 0.01 0.25
8:53 am 08:53 Cloudy with Light Rain 54 12.2 51 10.6 90 90 E 7 11 29.98 1015 10 16 0.01 0.25
9:53 am 09:53 Cloudy with Light Rain 55 12.8 51 10.6 87 87 E 9 15 29.98 1015 8 13 0.01 0.25
10:53 am 10:53 Cloudy with Light Rain 55 12.8 52 11.1 90 90 E 8 13 29.98 1015 10 16 0.01 0.25
11:49 am 11:49 Cloudy 55 13 52 11 88 88 E 9 15 29.97 1015 9 14 0.00 0.03
11:53 am 11:53 Cloudy 55 12.8 51 10.6 87 87 E 9 15 29.97 1015 9 14 0.00 0.03
12:07 pm 12:07 Cloudy with Mist and Fog 55 12.8 52 11.1 90 90 E 7 11 30.00 1016 5 8 0.00 0.00
12:53 pm 12:53 Cloudy 56 13.3 52 11.1 87 87 ENE 7 11 29.95 1014 10 16 0.00 0.00
1:53 pm 13:53 Cloudy with Light Rain 56 13.3 53 11.7 90 90 NE 8 13 29.93 1014 10 16 0.00 0.03
2:53 pm 14:53 Cloudy 56 13.3 52 11.1 87 87 ENE 8 13 29.92 1013 10 16 0.00 0.03
3:49 pm 15:49 Cloudy with Light Rain 55 13 54 12 94 94 ENE 5 7 29.91 1013 2 3 0.00 0.03
3:50 pm 15:50 Cloudy with Light Rain 56 13.3 53 11.7 90 90 ENE 6 9 29.92 1013 2 3 0.00 0.03
3:55 pm 15:55 Cloudy with Light Rain 56 13.3 54 12.2 93 93 ENE 6 9 29.91 1013 2 2 0.00 0.03
4:05 pm 16:05 Cloudy with Light Rain 56 13.3 53 11.7 90 90 NE 5 7 29.91 1013 2 3 0.01 0.25
4:13 pm 16:13 Cloudy with Light Rain 56 13.3 54 12.2 93 93 NE 6 9 29.91 1013 2 3 0.01 0.25
4:27 pm 16:27 Cloudy with Mist and Fog 56 13.3 54 12.2 93 93 NE 6 9 29.91 1013 3 5 0.01 0.25
4:53 pm 16:53 Cloudy with Mist and Fog 56 13.3 54 12.2 93 93 N 7 11 29.91 1013 3 5 0.01 0.25
5:00 pm 17:00 Cloudy with Light Rain 56 13.3 54 12.2 93 93 NNE 6 9 29.91 1013 3 4 0.00 0.03
5:09 pm 17:09 Cloudy with Mist and Fog 56 13.3 53 11.7 90 90 NE 7 11 29.91 1013 3 5 0.00 0.03
5:17 pm 17:17 Cloudy with Mist and Fog 56 13.3 54 12.2 93 93 NE 5 7 29.91 1013 4 6 0.00 0.03
5:45 pm 17:45 Cloudy with Mist and Fog 56 13.3 54 12.2 93 93 NNE 6 9 29.91 1013 4 6 0.00 0.03
5:53 pm 17:53 Cloudy 56 13.3 54 12.2 93 93 NE 5 7 29.91 1013 7 11 0.00 0.03
6:23 pm 18:23 Cloudy 56 13.3 53 11.7 90 90 N 6 9 29.91 1013 9 14 0.00 0.00
6:45 pm 18:45 Cloudy 56 13.3 53 11.7 90 90 NNE 5 7 29.91 1013 10 16 0.00 0.00
6:53 pm 18:53 Cloudy 56 13.3 53 11.7 90 90 NNE 7 11 29.91 1013 10 16 0.00 0.00
7:24 pm 19:24 Cloudy 56 13.3 53 11.7 90 90 N 6 9 29.91 1013 10 16 0.00 0.00
7:53 pm 19:53 Cloudy 56 13.3 53 11.7 90 90 NNE 7 11 29.90 1013 10 16 0.00 0.00
8:11 pm 20:11 Cloudy 55 12.8 53 11.7 93 93 N 5 7 29.91 1013 10 16 0.00 0.00
8:22 pm 20:22 Cloudy 55 12.8 53 11.7 93 93 N 5 7 29.91 1013 9 14 0.00 0.00
8:53 pm 20:53 Cloudy with Mist and Fog 55 12.8 53 11.7 93 93 N 5 7 29.91 1013 4 6 0.00 0.00
9:13 pm 21:13 Cloudy with Light Rain 55 12.8 53 11.7 93 93 NNW 5 7 29.91 1013 4 6 0.00 0.03
9:26 pm 21:26 Cloudy with Light Rain 55 12.8 53 11.7 93 93 NNW 6 9 29.91 1013 8 13 0.00 0.03
9:53 pm 21:53 Cloudy with Mist and Fog 55 12.8 53 11.7 93 93 NNW 5 7 29.92 1013 6 10 0.00 0.03
10:53 pm 22:53 Cloudy with Mist and Fog 54 12.2 53 11.7 97 97 NNW 6 9 29.93 1013 6 10 0.01 0.25
11:10 pm 23:10 Cloudy 54 12.2 53 11.7 97 97 NNW 6 9 29.97 1015 8 13 0.00 0.00
11:53 pm 23:53 Cloudy with Mist and Fog 54 12.2 52 11.1 93 93 NW 6 9 29.92 1013 6 10 0.01 0.25

Powered by AerisWeather